Location: Newark
(49.0697°N, 1.0692°W)
Time: 22:48:44
(UTC+00:00)

ISS - Visible Passes

Search period start: 19 January 2020 00:00
Search period end: 29 January 2020 00:00
Orbit: 415 x 421 km, 51.6° (Epoch: 20 January)

Date Brightness Start Highest point End Pass type
(mag) Time Alt. Az. Time Alt. Az. Time Alt. Az.
20 Jan -1.3 18:58:53 10° SSW 18:59:47 15° S 18:59:47 15° S visible
21 Jan -1.7 18:11:45 10° S 18:13:49 15° SE 18:14:04 15° SE visible
21 Jan -0.5 19:46:46 10° WSW 19:47:01 12° WSW 19:47:01 12° WSW visible
22 Jan -2.6 18:58:55 10° SW 19:01:13 36° SSW 19:01:13 36° SSW visible
23 Jan -2.7 18:11:11 10° SSW 18:14:15 33° SE 18:15:21 26° ESE visible
23 Jan -0.7 19:47:31 10° W 19:48:17 16° W 19:48:17 16° W visible
24 Jan -2.1 17:23:41 10° SSW 17:26:23 22° SE 17:29:04 10° E visible
24 Jan -3.4 18:59:28 10° WSW 19:02:21 63° WSW 19:02:21 63° WSW visible
25 Jan -3.7 18:11:29 10° WSW 18:14:50 67° SSE 18:16:22 29° E visible
25 Jan -0.8 19:48:23 10° W 19:49:18 17° W 19:49:18 17° W visible
26 Jan -3.1 17:23:35 10° SW 17:26:50 47° SSE 17:30:06 10° ENE visible
26 Jan -3.3 19:00:15 10° W 19:03:15 56° NW 19:03:15 56° NW visible
27 Jan -3.7 18:12:08 10° W 18:15:30 72° NNW 18:17:11 27° ENE visible
27 Jan -0.8 19:49:12 10° WNW 19:50:07 17° WNW 19:50:07 17° WNW visible
28 Jan -3.7 17:24:02 10° WSW 17:27:26 89° SE 17:30:48 10° ENE visible
28 Jan -3.1 19:01:04 10° W 19:04:01 49° NNW 19:04:01 49° NNW visible
